Hattiesburg, MS

2:47 AM CDT on May 29, 2017 (GMT -0500)
Chain Municipal

Weather History for KHBG - January, 2010

Change the Weather History Date:

Thursday, January 28, 2010

  Actual Average Record
Temperature  
Mean Temperature 50 °F 49 °F  
Max Temperature 67 °F 60 °F 83 °F (1957)
Min Temperature 32 °F 37 °F 20 °F (1963)
Degree Days  
Heating Degree Days 15 17  
Month to date heating degree days 590 469  
Since 1 July heating degree days 1483 1254  
Cooling Degree Days 0 0  
Month to date cooling degree days 0 0  
Year to date cooling degree days 0 0  
Moisture  
Dew Point 36 °F    
Average Humidity 64    
Maximum Humidity 100    
Minimum Humidity 28    
Precipitation  
Precipitation 0.00 in 0.20 in 4.33 in (1994)
Month to date precipitation 2.58 5.10  
Year to date precipitation 2.58 5.10  
Sea Level Pressure  
Sea Level Pressure 30.25 in    
Wind  
Wind Speed 2 mph (ESE)    
Max Wind Speed 9 mph    
Max Gust Speed 13 mph    
Visibility 10 miles    
Events      
T = Trace of Precipitation, MM = Missing Value Source: NWS Daily Summary

Daily Weather History Graph

Daily Weather History Graph

Search for Another Location

Airport or City:

Trip Planner

Search our weather history database for the weather conditions in past years. The results will help you decide how hot, cold, wet, or windy it might be!

Date:

Astronomy

Jan. 28, 2010 Rise Set
Actual Time 6:51 AM CST 5:28 PM CST
Civil Twilight 6:26 AM CST 5:54 PM CST
Nautical Twilight 5:56 AM CST 6:23 PM CST
Astronomical Twilight 5:28 AM CST 6:52 PM CST
Moon 3:54 PM CST (1/28) 5:24 AM CST (1/28)
Length of Visible Light 11h 28m
Length of Day
10h 37m
Waxing Gibbous, 97% of the Moon is Illuminated
Jan 28
Waxing Gibbous
Jan 30
Full
Feb 5
Last Quarter
Feb 13
New
Feb 21
First Quarter

Hourly Weather History & Observations

Time (CST) Temp. Dew Point Humidity Pressure Visibility Wind Dir Wind Speed Gust Speed Precip Events Conditions
12:53 AM 36.0 °F 34.0 °F 93% 30.32 in 10.0 mi Calm Calm - N/A   Clear
1:53 AM 35.1 °F 33.1 °F 92% 30.32 in 10.0 mi Calm Calm - N/A   Clear
2:53 AM 34.0 °F 33.1 °F 96% 30.32 in 10.0 mi Calm Calm - N/A   Clear
4:53 AM 32.0 °F 30.9 °F 96% 30.32 in 10.0 mi Calm Calm - N/A   Clear
5:53 AM 32.0 °F 30.9 °F 96% 30.32 in 10.0 mi Calm Calm - N/A   Clear
6:53 AM 32.0 °F 30.9 °F 96% 30.33 in 10.0 mi Calm Calm - N/A   Clear
7:53 AM 36.0 °F 34.0 °F 93% 30.35 in 10.0 mi Calm Calm - N/A   Clear
8:53 AM 44.1 °F 39.0 °F 82% 30.35 in 10.0 mi Calm Calm - N/A   Clear
9:53 AM 53.1 °F 43.0 °F 69% 30.35 in 10.0 mi Calm Calm - N/A   Clear
10:53 AM 57.9 °F 37.9 °F 47% 30.32 in 10.0 mi Variable 3.5 mph - N/A   Clear
11:53 AM 62.1 °F 35.1 °F 37% 30.29 in 10.0 mi Variable 3.5 mph - N/A   Clear
12:53 PM 64.0 °F 34.0 °F 33% 30.25 in 10.0 mi East 4.6 mph - N/A   Clear
1:53 PM 66.0 °F 33.1 °F 29% 30.21 in 10.0 mi SE 5.8 mph - N/A   Clear
2:53 PM 66.0 °F 32.0 °F 28% 30.19 in 10.0 mi ESE 9.2 mph - N/A   Clear
3:53 PM 64.0 °F 32.0 °F 30% 30.18 in 10.0 mi East 6.9 mph - N/A   Clear
4:53 PM 62.1 °F 34.0 °F 35% 30.19 in 10.0 mi ESE 3.5 mph - N/A   Clear
5:53 PM 53.1 °F 43.0 °F 69% 30.16 in 10.0 mi ESE 4.6 mph - N/A   Clear
6:53 PM 51.1 °F 41.0 °F 68% 30.19 in 10.0 mi Calm Calm - N/A   Clear
7:53 PM 48.0 °F 41.0 °F 77% 30.18 in 10.0 mi Calm Calm - N/A   Clear
8:53 PM 46.9 °F 41.0 °F 80% 30.19 in 10.0 mi Calm Calm - N/A   Overcast
9:53 PM 46.9 °F 41.0 °F 80% 30.19 in 10.0 mi Calm Calm - N/A   Mostly Cloudy
10:53 PM 46.9 °F 42.1 °F 83% 30.17 in 10.0 mi Calm Calm - N/A   Scattered Clouds
11:53 PM 46.0 °F 42.1 °F 86% 30.16 in 10.0 mi Calm Calm - N/A   Mostly Cloudy